"Pseudo-MPEC" for MHJ23H2

Created 2023 Jan 27 13:22:20 UT using Find_Orb

Click here for an explanation of pseudo-MPECs

 
 Astrometry: 
     MHJ23H2*KC2023 01 24O:\lNN(HnNl?M#eW6/oB#9Nh2Bwr=+1An9IvbK.]Rf#0VfYxjr;(W16
     MHJ23H2 KC2023 01 24a8!XwWiK)BHE`AstrometryMSwY?TCuA#M1Oi)Drj7MH4*l-UuOWW16
     MHJ23H2 KC2023 01 24@i^Mfredacted;rGA;vJ'H90leclickU)l#rherevI%,DT=ClctmW16
     MHJ23H2 KC2023 01 26.28352710 20 10.993+61 41 56.36   ~1Q7q 21.75GVNEOCPI52
     MHJ23H2 KC2023 01 26.28954210 20 10.604+61 42 00.29   ~1Q7q       VNEOCPI52
     MHJ23H2 KC2023 01 26.29560910 20 10.010+61 42 05.18   ~1Q7q       VNEOCPI52
     MHJ23H2 KC2023 01 26.30772510 20 08.858+61 42 15.66   ~1Q7q       VNEOCPI52
     MHJ23H2 KC2023 01 27^iibm'0alVLG:?$2oNk!ry?kvu]_I*x8sxgZdNLATs5sw!CKlDxkW16
     MHJ23H2 KC2023 01 27=iglo0$b]forW$7',=aj74g8Wm^VEOMhp@nv5X!woX:tIufwAVhVW16
     MHJ23H2 KC2023 01 27wZgDCimq1=k%97:X-LL[u!;;R]explanationK@m#TZGrXk?OV\@W16

Station data:
(I52) Steward Observatory, Mt. Lemmon Station  (N32.442544 W110.788920)
   US/Arizona.  Observers T. A. Pruyne, B. M. Africano, E. J. Christensen, G.
   A. Farneth, D. C. Fuls, A. R. Gibbs, A. D. Grauer, H. Gröller, J. A.
   Johnson, R. A. Kowalski, S. M. Larson, G. J. Leonard, D. Rankin, R. L.
   Seaman, F. C. Shelly, K. W. Wierzchoś. 1.0-m reflector + CCD.
(W16) Pleasant Groves Observatory  (N34.711888 W86.231310)  US/Alabama.
   Observer M. Holbrook. 0.36-m reflector + CCD.

Orbital elements:  MHJ23H2
   Perihelion 2022 Nov 29.81580 +/- 16.3 TT = 19:34:44 (JD 2459913.31580)
Epoch 2023 Jan 27.0 TT = JDT 2459971.5   Earth MOID: 0.7399      AutoNEOCP
M  22.78880711 +/- 6                (J2000 ecliptic)
n   0.39166656 +/- 0.0038           Peri.   50.17753 +/- 8
a   1.85008514 +/- 0.012            Node    51.06729 +/- 0.8
e   0.0861381 +/- 0.00798           Incl.   22.50554 +/- 0.20
P   2.52/919.13d           H 19.34  G  0.15   U  9.0
q 1.69072218 +/- 0.0128    Q 2.00944811 +/- 0.0243
From 10 observations 2023 Jan. 24-27; mean residual 0".39
Residuals in arcseconds: 
230124 W16  .53+  .11-    230126 I52  .53+  .52-    230127 W16  .35+  .17-    
230124 W16  .02-  .09+    230126 I52  .20+  .39-    230127 W16  .50-  .54+    
230124 W16  .51-  .03+    230126 I52  .18-  .64+    
230126 I52  .56-  .27+    230127 W16  .17+  .37-    

Ephemerides (geocentric):
Date (UTC) HH   RA             Dec           delta  r     elong  mag " sig PA
---- --------  ------------   ------------  ------ ------ -----  --- --------
2023 01 27 13  10 18 20.921   +61 57 13.13  .87372 1.7058 133.1 21.4 .394  41
2023 01 27 14  10 18 17.180   +61 57 42.53  .87375 1.7058 133.1 21.4 .423  41
2023 01 27 15  10 18 13.431   +61 58 11.85  .87378 1.7058 133.1 21.4 .452  41
2023 01 27 16  10 18 09.675   +61 58 41.11  .87381 1.7058 133.1 21.4 .482  41
2023 01 27 17  10 18 05.912   +61 59 10.29  .87385 1.7058 133.1 21.4 .513  41
2023 01 27 18  10 18 02.141   +61 59 39.41  .87388 1.7059 133.1 21.4 .544  41
2023 01 27 19  10 17 58.362   +62 00 08.45  .87391 1.7059 133.1 21.4 .576  41
2023 01 27 20  10 17 54.577   +62 00 37.42  .87394 1.7059 133.1 21.4 .609  41
2023 01 27 21  10 17 50.784   +62 01 06.33  .87398 1.7059 133.1 21.4 .642  41
2023 01 27 22  10 17 46.983   +62 01 35.16  .87401 1.7060 133.1 21.4 .676  41
2023 01 27 23  10 17 43.176   +62 02 03.92  .87404 1.7060 133.1 21.4 .711  41
2023 01 28 00  10 17 39.361   +62 02 32.61  .87408 1.7060 133.1 21.4 .746  41
2023 01 28 01  10 17 35.539   +62 03 01.22  .87411 1.7060 133.1 21.4 .782  41
2023 01 28 02  10 17 31.709   +62 03 29.77  .87414 1.7060 133.1 21.4 .818  41
2023 01 28 03  10 17 27.872   +62 03 58.25  .87418 1.7061 133.1 21.4 .855  41
2023 01 28 04  10 17 24.028   +62 04 26.65  .87421 1.7061 133.1 21.4 .893  41
2023 01 28 05  10 17 20.177   +62 04 54.98  .87425 1.7061 133.1 21.4 .932  41
2023 01 28 06  10 17 16.319   +62 05 23.24  .87428 1.7061 133.1 21.4 .971  41
2023 01 28 07  10 17 12.453   +62 05 51.43  .87432 1.7061 133.1 21.4 1.01  41
2023 01 28 08  10 17 08.580   +62 06 19.55  .87435 1.7062 133.1 21.4 1.05  41
2023 01 28 09  10 17 04.700   +62 06 47.59  .87439 1.7062 133.1 21.4 1.09  41
2023 01 28 10  10 17 00.813   +62 07 15.56  .87443 1.7062 133.1 21.4 1.13  41
2023 01 28 11  10 16 56.919   +62 07 43.46  .87446 1.7062 133.1 21.4 1.18  41
2023 01 28 12  10 16 53.017   +62 08 11.29  .87450 1.7062 133.1 21.4 1.22  41
2023 01 28 13  10 16 49.109   +62 08 39.05  .87453 1.7063 133.1 21.4 1.26  41
2023 01 28 14  10 16 45.193   +62 09 06.73  .87457 1.7063 133.1 21.4 1.31  41
2023 01 28 15  10 16 41.270   +62 09 34.34  .87461 1.7063 133.1 21.4 1.35  40
2023 01 28 16  10 16 37.341   +62 10 01.88  .87465 1.7063 133.1 21.4 1.40  40
2023 01 28 17  10 16 33.404   +62 10 29.35  .87468 1.7064 133.1 21.4 1.44  40
2023 01 28 18  10 16 29.460   +62 10 56.74  .87472 1.7064 133.1 21.4 1.49  40
2023 01 28 19  10 16 25.509   +62 11 24.06  .87476 1.7064 133.1 21.4 1.54  40
2023 01 28 20  10 16 21.551   +62 11 51.31  .87480 1.7064 133.1 21.4 1.59  40
2023 01 28 21  10 16 17.586   +62 12 18.49  .87484 1.7064 133.1 21.4 1.64  40
2023 01 28 22  10 16 13.615   +62 12 45.59  .87487 1.7065 133.1 21.4 1.68  40
2023 01 28 23  10 16 09.636   +62 13 12.62  .87491 1.7065 133.1 21.4 1.73  40
2023 01 29 00  10 16 05.650   +62 13 39.57  .87495 1.7065 133.1 21.4 1.79  40
2023 01 29 01  10 16 01.658   +62 14 06.46  .87499 1.7065 133.1 21.4 1.84  40
2023 01 29 02  10 15 57.658   +62 14 33.27  .87503 1.7065 133.1 21.4 1.89  40
2023 01 29 03  10 15 53.652   +62 15 00.00  .87507 1.7066 133.0 21.4 1.94  40
2023 01 29 04  10 15 49.638   +62 15 26.66  .87511 1.7066 133.0 21.4 2.00  40
2023 01 29 05  10 15 45.618   +62 15 53.25  .87515 1.7066 133.0 21.4 2.05  40
2023 01 29 06  10 15 41.591   +62 16 19.77  .87519 1.7066 133.0 21.4 2.10  40
2023 01 29 07  10 15 37.557   +62 16 46.21  .87523 1.7067 133.0 21.4 2.16  40
2023 01 29 08  10 15 33.517   +62 17 12.58  .87527 1.7067 133.0 21.4 2.22  40
2023 01 29 09  10 15 29.469   +62 17 38.87  .87532 1.7067 133.0 21.4 2.27  40
2023 01 29 10  10 15 25.415   +62 18 05.09  .87536 1.7067 133.0 21.4 2.33  40
2023 01 29 11  10 15 21.354   +62 18 31.24  .87540 1.7067 133.0 21.4 2.39  40
2023 01 29 12  10 15 17.287   +62 18 57.31  .87544 1.7068 133.0 21.4 2.45  40